Mooresboro, NC

2:08 AM EST on January 20, 2017 (GMT -0500)
Shelby Municipal

Weather History for KEHO - October, 2012

Change the Weather History Date:

Monday, October 8, 2012

  Actual Average (KHKY) Record (KHKY)
Temperature  
Mean Temperature 48 °F -  
Max Temperature 51 °F 68 °F 89 °F (2007)
Min Temperature 46 °F 49 °F 30 °F (2001)
Degree Days  
Heating Degree Days 16    
Moisture  
Dew Point 42 °F    
Average Humidity 79    
Maximum Humidity 93    
Minimum Humidity 66    
Precipitation  
Precipitation 0.00 in - - ()
Sea Level Pressure  
Sea Level Pressure 30.17 in    
Wind  
Wind Speed 8 mph (NNE)    
Max Wind Speed 12 mph    
Max Gust Speed 16 mph    
Visibility 9 miles    
Events      
Averages and records for this station are not official NWS values.
T = Trace of Precipitation, MM = Missing Value Source: NWS Daily Summary

Daily Weather History Graph

Daily Weather History Graph

Search for Another Location

Airport or City:

Trip Planner

Search our weather history database for the weather conditions in past years. The results will help you decide how hot, cold, wet, or windy it might be!

Date:

Astronomy

Oct. 08, 2012 Rise Set
Actual Time 7:27 AM EDT 6:59 PM EDT
Civil Twilight 7:01 AM EDT 7:25 PM EDT
Nautical Twilight 6:32 AM EDT 7:54 PM EDT
Astronomical Twilight 6:02 AM EDT 8:24 PM EDT
Moon 12:19 AM EDT (10/8) 2:35 PM EDT (10/8)
Length of Visible Light 12h 23m
Length of Day
11h 32m
Waning Gibbous, 46% of the Moon is Illuminated
Oct 8
Waning Gibbous
Oct 15
New
Oct 21
First Quarter
Oct 29
Full
Nov 6
Last Quarter

Hourly Weather History & Observations

Time (EDT) Temp. Windchill Dew Point Humidity Pressure Visibility Wind Dir Wind Speed Gust Speed Precip Events Conditions
12:15 AM 51.8 °F - 46.4 °F 82% 30.14 in 10.0 mi NE 6.9 mph - N/A   Overcast
2:35 AM 51.8 °F - 42.8 °F 71% 30.14 in 10.0 mi NNE 8.1 mph - N/A   Overcast
2:55 AM 51.8 °F - 41.0 °F 67% 30.14 in 10.0 mi NE 8.1 mph - N/A   Overcast
3:15 AM 50.0 °F - 41.0 °F 71% 30.14 in 10.0 mi NE 8.1 mph - N/A   Overcast
3:35 AM 50.0 °F - 41.0 °F 71% 30.14 in 10.0 mi NE 6.9 mph - N/A   Overcast
3:55 AM 50.0 °F - 41.0 °F 71% 30.14 in 10.0 mi NE 8.1 mph - N/A   Overcast
4:15 AM 50.0 °F - 41.0 °F 71% 30.14 in 10.0 mi NNE 8.1 mph - N/A   Overcast
4:35 AM 50.0 °F - 41.0 °F 71% 30.15 in 10.0 mi North 6.9 mph - N/A   Overcast
4:55 AM 50.0 °F - 41.0 °F 71% 30.15 in 10.0 mi NNE 10.4 mph - N/A   Overcast
5:15 AM 50.0 °F - 41.0 °F 71% 30.16 in 10.0 mi North 5.8 mph - N/A   Overcast
5:35 AM 50.0 °F - 41.0 °F 71% 30.16 in 10.0 mi NNE 6.9 mph - N/A   Overcast
5:55 AM 50.0 °F - 41.0 °F 71% 30.16 in 10.0 mi NNE 9.2 mph - N/A   Overcast
6:15 AM 50.0 °F - 41.0 °F 71% 30.17 in 10.0 mi NNE 9.2 mph - N/A   Overcast
6:35 AM 50.0 °F - 41.0 °F 71% 30.17 in 10.0 mi NNE 10.4 mph - N/A   Overcast
6:55 AM 50.0 °F - 39.2 °F 66% 30.17 in 10.0 mi NE 8.1 mph - N/A   Overcast
7:15 AM 50.0 °F - 39.2 °F 66% 30.17 in 10.0 mi NNE 9.2 mph - N/A   Overcast
7:35 AM 50.0 °F - 41.0 °F 71% 30.18 in 10.0 mi NNE 8.1 mph - N/A   Overcast
7:55 AM 50.0 °F - 41.0 °F 71% 30.19 in 10.0 mi NE 9.2 mph - N/A   Overcast
8:15 AM 48.2 °F - 41.0 °F 76% 30.19 in 10.0 mi NNE 8.1 mph - N/A   Overcast
8:35 AM 48.2 °F - 41.0 °F 76% 30.18 in 10.0 mi NNE 10.4 mph - N/A   Overcast
8:55 AM 48.2 °F - 41.0 °F 76% 30.17 in 10.0 mi NE 11.5 mph 16.1 mph N/A   Overcast
9:15 AM 48.2 °F - 41.0 °F 76% 30.19 in 10.0 mi NNE 9.2 mph - N/A   Overcast
9:35 AM 48.2 °F - 41.0 °F 76% 30.19 in 10.0 mi NNE 11.5 mph - N/A   Overcast
9:55 AM 50.0 °F - 41.0 °F 71% 30.19 in 10.0 mi NE 10.4 mph - N/A   Overcast
10:15 AM 50.0 °F - 41.0 °F 71% 30.21 in 10.0 mi NNE 10.4 mph - N/A   Overcast
10:35 AM 50.0 °F - 41.0 °F 71% 30.21 in 10.0 mi NE 8.1 mph - N/A   Overcast
10:55 AM 50.0 °F - 41.0 °F 71% 30.21 in 10.0 mi NE 10.4 mph - N/A   Overcast
11:15 AM 50.0 °F - 41.0 °F 71% 30.21 in 10.0 mi NE 9.2 mph - N/A   Overcast
11:35 AM 50.0 °F - 42.8 °F 76% 30.21 in 10.0 mi NE 10.4 mph - N/A   Overcast
11:55 AM 50.0 °F - 42.8 °F 76% 30.21 in 10.0 mi NNE 10.4 mph - N/A   Overcast
12:15 PM 50.0 °F - 42.8 °F 76% 30.21 in 10.0 mi North 8.1 mph - N/A   Overcast
12:35 PM 50.0 °F - 42.8 °F 76% 30.20 in 10.0 mi NNE 10.4 mph - N/A   Overcast
12:55 PM 50.0 °F - 42.8 °F 76% 30.20 in 10.0 mi NNE 10.4 mph - N/A   Overcast
1:55 PM 50.0 °F - 42.8 °F 76% 30.17 in 10.0 mi North 6.9 mph - N/A   Overcast
2:15 PM 50.0 °F - 42.8 °F 76% 30.17 in 10.0 mi NNE 5.8 mph - N/A   Overcast
2:35 PM 50.0 °F - 44.6 °F 82% 30.15 in 5.0 mi NNE 8.1 mph - N/A   Haze
3:15 PM 46.4 °F 41.9 °F 44.6 °F 93% 30.15 in 3.0 mi North 9.2 mph - N/A   Overcast
3:35 PM 46.4 °F 41.9 °F 44.6 °F 93% 30.16 in 4.0 mi NNE 9.2 mph - N/A   Overcast
3:55 PM 46.4 °F 41.9 °F 44.6 °F 93% 30.15 in 4.0 mi NNE 9.2 mph - N/A   Overcast
4:15 PM 46.4 °F 42.4 °F 44.6 °F 93% 30.14 in 2.5 mi NNE 8.1 mph - N/A   Overcast
4:35 PM 46.4 °F 41.1 °F 44.6 °F 93% 30.14 in 7.0 mi NNE 11.5 mph 16.1 mph N/A   Overcast
4:55 PM 48.2 °F - 44.6 °F 87% 30.14 in 10.0 mi NE 8.1 mph - N/A   Overcast
5:15 PM 48.2 °F - 44.6 °F 87% 30.14 in 10.0 mi NNE 11.5 mph - N/A   Overcast
5:35 PM 46.4 °F 42.4 °F 44.6 °F 93% 30.14 in 10.0 mi NE 8.1 mph - N/A   Overcast
5:55 PM 48.2 °F - 44.6 °F 87% 30.13 in 10.0 mi ENE 9.2 mph - N/A   Overcast
6:15 PM 48.2 °F - 44.6 °F 87% 30.15 in 10.0 mi NNE 9.2 mph - N/A   Overcast
6:35 PM 46.4 °F 43.5 °F 44.6 °F 93% 30.14 in 10.0 mi NE 5.8 mph - N/A   Overcast
6:55 PM 46.4 °F 41.5 °F 44.6 °F 93% 30.16 in 10.0 mi NNE 10.4 mph - N/A   Overcast
7:15 PM 46.4 °F 41.9 °F 44.6 °F 93% 30.16 in 10.0 mi NNE 9.2 mph - N/A   Overcast
8:15 PM 46.4 °F 42.9 °F 42.8 °F 87% 30.17 in 10.0 mi NNE 6.9 mph - N/A   Overcast
8:35 PM 46.4 °F 42.4 °F 42.8 °F 87% 30.17 in 10.0 mi NNE 8.1 mph - N/A   Overcast
8:55 PM 46.4 °F 42.9 °F 42.8 °F 87% 30.17 in 10.0 mi NNE 6.9 mph - N/A   Overcast
9:15 PM 46.4 °F 42.4 °F 42.8 °F 87% 30.17 in 10.0 mi NNE 8.1 mph - N/A   Overcast
9:35 PM 46.4 °F 42.4 °F 42.8 °F 87% 30.17 in 10.0 mi NNE 8.1 mph - N/A   Overcast
10:15 PM 46.4 °F 42.4 °F 42.8 °F 87% 30.19 in 10.0 mi NE 8.1 mph - N/A   Overcast
10:35 PM 46.4 °F 42.9 °F 42.8 °F 87% 30.19 in 10.0 mi NNE 6.9 mph - N/A   Overcast
10:55 PM 46.4 °F 42.9 °F 42.8 °F 87% 30.19 in 10.0 mi NNE 6.9 mph - N/A   Overcast
11:15 PM 46.4 °F 42.9 °F 42.8 °F 87% 30.19 in 10.0 mi NNE 6.9 mph - N/A   Overcast
11:55 PM 46.4 °F 42.9 °F 42.8 °F 87% 30.18 in 10.0 mi NNE 6.9 mph - N/A   Overcast